Location: Gardena
(33.8883°N, 118.3090°W)
Time: 13:39:19
(UTC+00:00)

Daily predictions for brighter satellites

Satellite Brightness Start Highest point End
(mag) Time Altitude Azimuth Time Altitude Azimuth Time Altitude Azimuth
Chandra Rocket (1) 3.7 12:29:58 29° SSE 12:29:58 29° SSE 12:32:07 10° ESE
CZ-3A R/B 4.1 12:26:01 40° SW 12:29:45 50° S 12:37:45 10° ESE
Tsikada Rocket 3.8 12:37:19 54° N 12:38:50 89° E 12:45:00 10° S
Cosmos 2322 3.6 12:43:18 53° SSW 12:44:44 87° ESE 12:50:28 10° NNE
Cosmos 2333 Rocket 2.2 12:42:37 19° SSW 12:46:48 77° ESE 12:52:27 10° NNE
Cosmos 1844 Rocket 3.1 12:44:35 34° N 12:46:54 59° ENE 12:52:22 10° SSE
Meteor 2-5 Rocket 3.8 12:47:04 26° N 12:50:23 77° E 12:56:05 10° SSE
BREEZE-M DEB (TANK) 4.3 12:53:47 38° SSW 12:53:47 38° SSW 13:01:08 10° SE
COSMOS 2455 3.6 12:57:40 34° SW 12:57:40 34° SW 13:01:41 10° S
Cosmos 1777 Rocket 3.8 12:56:20 72° WNW 12:56:38 74° WSW 13:01:52 10° S
Haruka 3.3 12:55:49 55° WSW 12:56:49 71° S 13:09:04 10° E
Meteor 1-22 Rocket 4.1 12:51:39 10° SSW 12:57:12 78° W 13:03:02 10° N
ADEOS 4.4 12:52:39 10° N 13:03:58 - SSW 12:55:41 35° N
CZ-4B R/B 3.2 12:56:49 10° NNE 13:00:21 55° E 13:03:57 10° S
Delta 2 Rocket 4.0 13:00:13 60° WSW 13:01:08 73° SSW 13:06:45 10° ESE
Cosmos 44 3.7 13:00:28 37° NNW 13:02:39 73° ENE 13:08:00 10° SE
Aureole 2 Rocket 3.8 13:04:38 30° SE 13:04:38 30° SE 13:06:19 10° SSE
Cosmos 2219 Rocket 2.0 12:57:54 10° SSW 13:03:30 86° WNW 13:09:07 10° NNE
Cosmos 1758 4.2 13:00:10 10° SSE 13:04:01 49° E 13:07:54 10° NNE
OAO 2 Rocket 3.5 13:03:34 49° SW 13:04:38 63° SSE 13:09:30 10° E
COSMOS 2428 2.7 13:00:07 10° SSW 13:05:49 82° ESE 13:11:32 10° NNE
deb Chang Zheng 4 3.4 13:02:35 10° NNE 13:06:51 89° W 13:11:04 10° SSW
IRIDIUM 103 4.3 13:02:46 10° S 13:07:58 83° E 13:13:12 10° N
SL-14 R/B 3.5 13:11:14 53° SSW 13:11:14 53° SSW 13:14:29 10° S
Cosmos 2333 4.3 13:11:42 46° W 13:12:17 48° WNW 13:17:42 10° N
Cosmos 1892 Rocket 4.4 13:15:13 10° N 13:19:27 50° E 13:23:42 10° SSE
Cosmos 1689 Rocket 3.8 13:18:08 10° SE 13:20:46 31° ENE 13:23:02 13° NNE
Cosmos 2233 Rocket 4.4 13:16:19 10° SW 13:22:03 37° WNW 13:27:47 10° NNW
IRIDIUM 106 4.2 13:21:07 10° S 13:26:16 65° W 13:31:28 10° N
COSMO-SKYMED 1 2.4 13:22:05 10° S 13:26:24 71° WSW 13:29:37 18° NNW
OAO 3 Rocket 3.3 13:25:11 39° W 13:26:41 61° SSW 13:31:16 10° ESE
Cosmos 2360 Rocket 4.0 13:33:29 14° NNW 13:33:29 14° NNW 13:34:42 10° NNW
Cosmos 1470 2.9 13:27:31 10° SSW 13:31:13 44° W 13:34:55 10° N
IUS R/B (1) 4.0 13:35:18 11° SSW 13:36:59 16° S 13:38:30 10° SE
Meteor 1-24 Rocket 3.8 13:32:08 10° NNW 13:37:23 50° W 13:42:46 10° SSW
GPS 2-04 Rocket1 2.8 13:36:03 35° WNW 13:37:41 71° N 13:41:51 10° E
SJ-7 4.4 13:33:36 10° NNE 13:37:47 86° ESE 13:41:53 10° SSW
YAOGAN 6 2.7 13:35:08 10° NNE 13:38:49 79° E 13:42:30 10° S
ERS-2 2.0 13:35:21 10° S 13:38:57 62° WSW 13:41:31 18° NNW
Meteor PRIRODA 3.9 13:36:13 10° N 13:39:38 40° WNW 13:43:02 10° SW
Atlas Centaur 2 3.9 13:35:55 10° SW 13:43:45 48° SSE 13:51:48 10° E
Cosmos 1513 Rocket 4.5 13:37:33 10° SSW 13:43:53 68° W 13:50:10 10° N
CZ-4B R/B 2.7 13:41:27 10° SSW 13:43:32 23° WSW 13:43:32 23° WSW
Cosmos 540 Rocket 3.8 13:39:21 10° S 13:44:23 66° ESE 13:49:27 10° NNE
Cosmos 921 Rocket 2.9 13:40:40 10° SSW 13:44:56 59° WNW 13:49:09 10° N
SJ 16-02 1.3 13:42:12 14° NNW 13:45:55 62° WSW 13:50:12 10° S
GEOS 3 Rocket 3.8 13:43:02 10° SSE 13:48:16 60° WSW 13:52:57 14° NW
Okean 1-7 Rocket 3.9 13:43:49 10° N 13:48:21 70° E 13:52:49 10° SSE
Cosmos 1544 Rocket 3.5 13:45:09 10° S 13:49:28 89° W 13:53:49 10° N
PSLV R/B 3.8 13:45:45 10° S 13:49:47 70° WSW 13:53:53 10° NNW
Cosmos 1356 Rocket 4.2 13:46:28 10° SW 13:49:52 27° WNW 13:53:21 10° NNW
BREEZE M DEB (TANK) 1.0 13:50:26 19° SW 13:51:46 82° SE 13:54:20 10° NE
Cosmos 1461 3.1 13:47:46 10° SW 13:52:21 68° WNW 13:57:06 10° NNE
Cosmos 1464 Rocket 4.0 13:46:56 10° SSW 13:52:57 59° W 13:59:00 10° N
Spot 2 4.2 13:48:55 10° NNE 13:52:57 71° ESE 13:56:59 10° S
Cosmos 1726 2.7 13:50:43 10° SW 13:54:03 33° W 13:57:27 10° NNW
Cosmos 1844 4.2 13:53:26 12° NW 13:58:18 39° WSW 14:03:36 10° S
Cosmos 1570 Rocket 4.4 13:53:11 10° S 13:58:22 69° ESE 14:03:34 10° NNE
Cosmos 1898 Rocket 3.7 13:54:21 10° NNW 13:59:32 74° ENE 14:04:40 10° SSE
Cosmos 1763 Rocket 3.8 13:56:04 10° SW 14:00:51 40° WNW 14:05:44 10° N
Cosmos 841 Rocket 3.4 13:58:12 10° SSW 14:03:20 85° WNW 14:08:30 10° NNE
MOS 1-B 4.4 13:57:59 10° NNE 14:03:48 85° ESE 14:09:33 10° SSW
FALCON 9 R/B 2.4 13:59:40 11° WSW 14:03:51 23° SSW 14:05:52 10° SSE
PSLV R/B 4.0 14:03:42 10° N 14:07:30 48° WNW 14:11:22 10° SSW
H-2A R/B 3.8 14:05:54 10° NNW 14:08:50 23° WNW 14:11:47 10° SW
MOS 1 Rocket 4.1 14:06:56 10° SSW 14:11:45 36° W 14:16:21 10° NNW
NOSS 0 Rocket 4.0 14:07:06 10° SW 14:13:10 56° WNW 14:19:15 10° NNE
Cosmos 1340 4.2 14:09:43 10° N 14:13:15 38° E 14:16:46 10° SSE
Cosmos 2208 Rocket 4.3 14:07:52 10° S 14:13:18 78° ESE 14:18:45 10° NNE
Cosmos 1953 2.6 14:09:30 10° SSW 14:13:20 45° W 14:17:10 10° N
Cosmos 1626 Rocket 3.9 14:10:29 10° N 14:14:56 71° E 14:19:23 10° SSE
AQUARIUS 4.3 14:11:16 10° NNE 14:15:47 83° ESE 14:20:16 10° S
Cosmos 1455 Rocket 4.0 14:13:20 10° SW 14:16:57 25° WNW 14:20:34 10° NNW
PAYLOAD B 4.2 14:13:57 10° N 14:19:30 73° WNW 14:25:04 10° SSW
CZ-2C R/B 2.6 14:16:10 10° SW 14:19:50 36° SSE 14:23:18 10° E
SL-16 R/B 3.8 14:16:07 10° S 14:21:22 41° ESE 14:26:39 10° NE
USA 276 2.7 14:20:04 10° NW 14:23:08 51° NE 14:26:11 10° ESE
Okean O Rocket 1.7 14:19:03 10° NNE 14:23:27 83° ESE 14:27:46 10° S
BREEZE-M (TANK) 3.9 14:23:52 10° NNE 14:24:29 11° NNE 14:25:07 10° NE
Cosmos 2034 Rocket 4.4 14:21:49 10° SSW 14:27:50 44° W 14:33:54 10° N
CZ-4B R/B 3.3 14:22:44 10° NNE 14:28:25 87° WNW 14:34:01 10° SSW
FengYun 1-2 T 4.5 14:23:15 10° NNE 14:28:56 81° ESE 14:34:34 10° S
Cosmos 1092 Rocket 4.2 14:23:49 10° N 14:29:58 79° E 14:36:08 10° S
Cosmos 1844 Rocket 4.3 14:27:14 10° WNW 14:30:09 14° W 14:33:03 10° SW
NOAA 6 4.4 14:26:04 10° N 14:30:55 42° WNW 14:35:46 10° SW
Cosmos 2278 Rocket 2.4 14:25:15 10° NNW 14:30:57 79° ENE 14:36:37 10° SSE
Cosmos 2333 Rocket 3.8 14:28:58 10° W 14:31:40 13° NW 14:34:23 10° NNW
CZ-3A R/B 4.2 14:24:01 10° W 14:32:39 29° SSW 14:37:51 10° SSE
FALCON 9 DEB 3.5 14:29:51 10° WSW 14:33:06 43° NW 14:36:22 10° NNE
Lacrosse 4 Rocket 2.4 14:29:25 10° S 14:33:26 53° ESE 14:37:35 10° NE
Cosmos 1814 Rocket 4.0 14:28:21 10° SSW 14:33:26 60° WNW 14:38:30 10° N
Cosmos 2237 Rocket 2.5 14:31:19 10° SW 14:36:42 45° WNW 14:42:08 10° N
